SL-14 DEB, 45355

Orbit data source: Space-Track

SL-14 DEB, 45355 is space debris in LEO originally from a launch on Thu, 15 Aug 1991 UTC launched from the Plesetsk Missile And Space Complex (PKMTR). Debris objects in space refer to the collection of defunct objects orbiting the Earth. Examples of debris include non-operational satellites, rocket bodies, and fragments generated from explosions, collisions, or faulty payload assembly.

Loading next visibility...
Identifier
45355, 1991-056CP
Orbit
LEO
Country
Flag of CISCIS
Related business
Manufacturer
Unknown
Mission
Spacecraft
Bus & Motor
Unknown
Mass
Unknown
Launch date (UTC)
1991-08-15 (34 years ago)
Launch vehicle
Unknown
Launch site
Plesetsk Missile And Space Complex (PKMTR)
Object type
Payload
Rocket body
Debris
Shape & HBR
Unknown shape, 0.1 m
Radar Cross Section
Small (<0.1 m²)

Expand to show TLE details & history
Last TLE update: 1 day ago

TLE from 1 day ago
0 SL-14 DEB
1 45355U 91056CP  25287.27316411  .00007607  00000-0  21756-1 0  9994
2 45355  82.6059   0.3690 0060857 237.7916 121.7293 13.09693375269326
Epoch: 2025-10-14T06:33Z
TLE epoch observation values (Epoch: 2025-10-14T06:33:21.379Z)
Latitude
-0.00001°
Longitude
-121.03404°
Altitude
1,251.683 km
Speed
7.218 km/s
True Right ascension
00h 01m 28s
True Declination
0° 00' 00"
Sunlit
Object was in full shadow at epoch
Visualization orbit readout
Latitude
Unknown
Longitude
Unknown
Altitude
Unknown
Speed
Unknown
Apparent Right ascension
Unknown
Apparent Declination
Unknown
Sunlit
N/A
Visualization observer readout
Local Sidereal Time
13:04:13
Azimuth
Unknown
Elevation
Unknown
Doppler factor
Unknown
Orbital elements
Apogee altitude
1,267.848 km
Perigee altitude
1,175.348 km
Semi-major axis
7,599.735 km
Eccentricity
0.00609
Inclination
82.6059°
RAAN
0.369°
Arg. of periapsis
237.7916°
True anomaly
122.32007°
Mean anomaly
121.7293°
Eccentric anomaly
122.02492°
Mean motion
3.27601 °/min
Orbital period
109.89 mins
BSTAR
0.021756
Loading maneuver chart data...
Computing Atmospheric mass density...
Loading historical data...
Loading historical data...
Loading historical data...
Loading historical data...
Loading historical data...
Loading historical data...
Loading historical data...

Documentation

Showing up to 5 results
|